Regional Weather Roundup
Issued by NWS

Home | Current Version | Previous Version | Text Only | Print | Product List | Glossary Off
Versions: 1 2 3 4 5 6 7 8 9 10 11 12 13 14 15 16 17 18 19 20 21 22 23 24 25 26 27 28 29 30 31 32 33 34 35 36 37 38 39 40 41 42 43 44 45 46 47 48 49 50

000
ASUS43 KBIS 300810
RWRND

NORTH DAKOTA REGIONAL WEATHER ROUNDUP
NATIONAL WEATHER SERVICE BISMARCK ND
300 AM CDT SUN AUG 30 2015

NOTE: "FAIR" INDICATES FEW OR NO CLOUDS BELOW 12,000 FEET WITH NO
SIGNIFICANT WEATHER AND/OR OBSTRUCTIONS TO VISIBILITY.


NDZ001>003-009>011-017-300900-
NORTHWEST NORTH DAKOTA

CITY           SKY/WX    TMP DP  RH WIND       PRES   REMARKS
WILLISTON      MOCLDY    67  56  67 CALM      29.69F HAZE
MINOT          MOCLDY    75  60  59 CALM      29.70F
MINOT AFB      CLOUDY    68  62  81 SE6       29.70F
$$

NDZ018>021-031>035-040>046-300900-
SOUTHWEST NORTH DAKOTA

CITY           SKY/WX    TMP DP  RH WIND       PRES   REMARKS
BISMARCK       MOCLDY    67  63  87 E6        29.78F
DICKINSON      MOCLDY    63  52  67 S8        29.76F
GARRISON         N/A     68  62  81 S5        29.75F
HETTINGER ARPT MOCLDY    67  52  58 SE5       29.81F
$$

NDZ004>008-012>016-024-026-027-054-300900-
NORTHEAST NORTH DAKOTA

CITY           SKY/WX    TMP DP  RH WIND       PRES   REMARKS
GRAND FORKS    PTCLDY    67  66  97 S10       29.78S
GRND FRKS AFB  PTCLDY    67  67  98 S9        29.78S
DEVILS LAKE    MOCLDY    70  63  78 S7        29.76F
$$

NDZ022-023-025-028>030-036>039-047>053-300900-
SOUTHEAST NORTH DAKOTA

CITY           SKY/WX    TMP DP  RH WIND       PRES   REMARKS
FARGO          FAIR      67  63  87 S12       29.83F
JAMESTOWN      MOCLDY    69  67  93 S12       29.80F FOG
$$




USA.gov is the U.S. government's official web portal to all federal, state and local government web resources and services.